Location: Kervinic
(48.4279°N, 4.7373°W)
Time: 16:44:19
(UTC+00:00)

Cosmos 1408 - Pass Details

Date: 09 April 2020
Orbit: 470 x 494 km, 82.6° (Epoch: 28 May)

Event Time Altitude Azimuth Distance (km) Brightness Sun altitude
Rises 20:41:27 0° 1° (N) 2,564 6.7 -16.0°
Reaches altitude 10° 20:43:52 10° 16° (NNE) 1,683 5.5 -16.3°
Enters shadow 20:46:54 24° 71° (ENE) 1,058 3.9 -16.7°
